Tracking 28790 objects as of 19-Apr-2024
HD Live streaming from Space Station
objects crossing your sky now

THORAD AGENA D DEB

Track THORAD AGENA D DEB now!
10-day predictions


NORAD ID: 4177
Int'l Code: 1969-082AV
Perigee: 851.6 km
Apogee: 1,015.9 km
Inclination: 70.1 °
Period: 103.6 minutes
Semi major axis: 7304 km
RCS: 0.0743 m2 (small)
Launch date: September 30, 1969
Source: United States (US)
Launch site: AIR FORCE WESTERN TEST RANGE (AFWTR)

Note: This is SATELLITE DEBRIS
Your satellite tracking list
Your tracking list is empty




NASA's NSSDC Master Catalog

Two Line Element Set (TLE):
1  4177U 69082AV  24109.98486770  .00002001  00000-0  15656-2 0  9997
2  4177  70.0720  88.6456 0112467 305.2546  53.8073 13.90566237746825
Source of the keplerian elements: AFSPC